Location: Minneapolis
(45.0000°N, 93.0000°W)
Time: 04:16:16
(UTC-05:00)

N. Korean satellite - Visible Passes

Search period start: 19 October 2017 00:00
Search period end: 29 October 2017 00:00
Orbit: 459 x 517 km, 97.2° (Epoch: 18 October)

Date Brightness Start Highest point End Pass type
(mag) Time Alt. Az. Time Alt. Az. Time Alt. Az.
19 Oct 7.9 19:36:55 10° S 19:40:15 40° W 19:43:35 10° NNW visible
20 Oct 6.5 19:13:22 10° SSE 19:16:52 84° WSW 19:20:22 10° NNW visible
21 Oct 6.7 18:50:13 10° SSE 18:53:34 46° ENE 18:56:56 10° N visible
21 Oct 10.1 20:26:15 10° WSW 20:27:22 11° W 20:28:30 10° WNW visible
22 Oct 9.3 20:01:09 10° SW 20:03:51 21° W 20:06:32 10° NW visible
23 Oct 8.0 19:37:06 10° S 19:40:24 40° W 19:43:41 10° NNW visible
24 Oct 10.1 07:03:28 10° ENE 07:05:15 13° E 07:07:01 10° ESE visible
24 Oct 6.5 19:13:32 10° S 19:17:01 83° WSW 19:20:29 10° NNW visible
25 Oct 6.7 18:50:21 10° SSE 18:53:41 47° ENE 18:57:01 10° N visible
25 Oct 10.1 20:26:31 10° WSW 20:27:30 11° W 20:28:29 10° WNW visible
26 Oct 9.3 20:01:18 10° SW 20:03:57 20° W 20:06:37 10° NW visible
27 Oct 8.0 19:37:13 10° S 19:40:29 39° W 19:43:45 10° NNW visible
28 Oct 10.0 07:03:29 10° ENE 07:05:21 14° E 07:07:14 10° ESE visible
28 Oct 6.5 19:13:37 10° S 19:17:05 82° WSW 19:20:33 10° NNW visible
